Tracking 31030 objects as of 16-Jul-2025
HD Live streaming from Space Station
objects crossing your sky now

CZ-6A DEB

Track CZ-6A DEB now!
10-day predictions


NORAD ID: 56583
Int'l Code: 2022-151ADF
Perigee: 605.6 km
Apogee: 711.5 km
Inclination: 98.6 °
Period: 97.8 minutes
Semi major axis: 7029 km
RCS: Unknown
Launch date: November 11, 2022
Source: People's Republic of China (PRC)
Launch site: Taiyaun Space Center, China (TSC)

Note: This is SATELLITE DEBRIS
Your satellite tracking list
Your tracking list is empty




NASA's NSSDC Master Catalog

Two Line Element Set (TLE):
1 56583U 22151ADF 25197.10003658  .00010990  00000-0  16417-2 0  9995
2 56583  98.6475 250.3167 0075300 211.8219 147.8426 14.73026130123556
Source of the keplerian elements: AFSPC